Location: ????????
(56.1167°N, 38.6333°E)
Time: 21:01:39
(UTC+00:00)

Cosmos 2297 Rocket - Pass Details

Date: 18 November 2025
Orbit: 837 x 844 km, 71.0° (Epoch: 14 December)

Event Time Altitude Azimuth Distance (km) Brightness Sun altitude
Rises 16:45:10 0° 320° (NW) 3,412 6.0 -29.1°
Reaches altitude 10° 16:47:54 10° 331° (NNW) 2,475 5.0 -29.5°
Enters shadow 16:51:15 27° 2° (N) 1,587 3.6 -29.9°
